Location: Newark
(7.0858°N, 171.3717°E)
Time: 14:41:17
(UTC+00:00)

Courier 1B Rocket - Pass Details

Date: 01 December 2020
Orbit: 920 x 1202 km, 28.2° (Epoch: 20 January)

Event Time Altitude Azimuth Distance (km) Brightness Sun altitude
Rises 00:40:34 0° 296° (WNW) 3,905 8.1 60.8°
Reaches altitude 10° 00:43:25 10° 294° (WNW) 2,905 7.5 60.7°
Maximum altitude 00:50:28 73° 210° (SSW) 1,060 7.3 60.3°
Drops below altitude 10° 00:57:01 10° 126° (SE) 2,705 7.6 59.9°
Sets 00:59:36 0° 124° (SE) 3,621 8.1 59.8°
